INTELSAT 602 (IS-602) 1 20315U 89087A 09184.57903200 .00000029 00000-0 10000-3 0 9154 2 20315 6.9451 65.9721 0001208 28.2321 213.7708 1.00271850 69880 INTELSAT 603 (IS-603) 1 20523U 90021A 09184.63125252 -.00000161 00000-0 10000-3 0 4866 2 20523 6.4304 67.5209 0001439 40.0778 21.4458 1.00272025 63645 SBS-6 1 20872U 90091A 09180.34225350 .00000027 00000-0 10000-3 0 770 2 20872 1.8121 80.6042 0007071 326.6429 32.7508 0.98991692 56909 INTELSAT 605 (IS-605) 1 21653U 91055A 09180.47484917 -.00000228 00000-0 00000-0 0 8003 2 21653 4.4726 73.2465 0001876 207.0094 152.7793 0.99328696 65426 INTELSAT 601 (IS-601) 1 21765U 91075A 09184.77268906 .00000122 00000-0 10000-3 0 7975 2 21765 4.5249 72.1065 0000508 19.1128 156.3429 1.00273169 64585 INTELSAT 701 (IS-701) 1 22871U 93066A 09182.38225537 .00000053 00000-0 10000-3 0 3782 2 22871 0.0054 293.4115 0002812 161.9172 141.8267 1.00272585 57344 INTELSAT 702 (IS-702) 1 23124U 94034A 09183.86342475 -.00000001 00000-0 10000-3 0 2407 2 23124 0.0074 358.0776 0001935 93.1579 206.6135 1.00272548 69279 INTELSAT 2 (IS-2) 1 23175U 94040A 09184.34415679 -.00000028 00000-0 10000-3 0 4615 2 23175 0.5001 84.0061 0002487 12.2246 118.2488 1.00272650 54197 INTELSAT 704 (IS-704) 1 23461U 95001A 09182.44589608 -.00000088 00000-0 10000-3 0 9761 2 23461 0.1665 67.1993 0001939 43.3655 249.4575 0.99179331 53049 INTELSAT 705 (IS-705) 1 23528U 95013A 09183.23080738 -.00000281 00000-0 10000-3 0 8748 2 23528 0.0248 257.1330 0001759 219.8400 196.4884 1.00270221 52229 INTELSAT 706 (IS-706) 1 23571U 95023A 09183.90572935 .00000087 00000-0 10000-3 0 9559 2 23571 0.0108 4.4004 0003421 96.0689 201.4904 1.00273257 51721 INTELSAT 3R (IS-3R) 1 23764U 96002A 09184.11931420 -.00000267 00000-0 10000-3 0 6573 2 23764 0.0387 250.4512 0001728 224.9092 165.8347 1.00268977 49341 HGS-3 1 23779U 96006A 09181.94081082 .00000153 00000-0 10000-3 0 2244 2 23779 0.0372 148.5092 0002685 317.5986 189.6935 1.00271495 49060 INTELSAT 707 (IS-707) 1 23816U 96015A 09183.91349566 -.00000283 00000-0 10000-3 0 8677 2 23816 0.0079 14.5429 0003106 95.5617 86.8213 1.00271854 48734 GALAXY 9 (G-9) 1 23877U 96033A 09183.32956343 -.00000224 00000-0 10000-3 0 1067 2 23877 0.8257 80.3746 0000877 33.6754 204.0112 1.00268158 48013 INTELSAT 709 (IS-709) 1 23915U 96035A 09184.82956565 -.00000183 00000-0 10000-3 0 9673 2 23915 0.0048 19.1269 0003048 78.4339 208.1920 1.00272036 47825 INTELSAT 801 (IS-801) 1 24742U 97009A 09183.58218723 -.00000224 00000-0 10000-3 0 6340 2 24742 0.7740 82.9262 0004496 357.6702 18.1960 1.00269543 45230 GALAXY 25 (G-25) 1 24812U 97026A 09183.46387561 -.00000161 00000-0 10000-3 0 9300 2 24812 0.0059 161.1011 0003044 301.3369 252.0696 1.00271896 44350 INTELSAT 802 (IS-802) 1 24846U 97031A 09182.15778037 .00000155 00000-0 00000+0 0 8463 2 24846 0.0129 357.8246 0002784 107.9728 263.2419 1.00274488 44063 INTELSAT 5 (IS-5) 1 24916U 97046A 09184.34416079 -.00000029 00000-0 10000-3 0 7976 2 24916 0.0131 40.6846 0002471 54.8442 118.8337 1.00271697 43537 INTELSAT 805 (IS-805) 1 25371U 98037A 09184.34848850 -.00000284 00000-0 10000-3 0 3776 2 25371 0.0193 267.7132 0003325 193.4041 250.3400 1.00271773 40462 INTELSAT 7 (IS-7) 1 25473U 98052A 09183.97625853 -.00000024 00000-0 10000-3 0 8092 2 25473 0.0187 70.8765 0002877 21.1298 249.2062 1.00271463 39549 INTELSAT 8 (IS-8) 1 25522U 98065A 09182.42341491 -.00000056 00000-0 10000-3 0 6557 2 25522 0.0480 268.2048 0003257 190.8837 138.9408 1.00271957 39101 GALAXY 26 (G-26) 1 25626U 99005A 09183.92464105 .00000112 00000-0 10000-3 0 5079 2 25626 0.0124 6.0755 0002763 99.1569 199.4537 1.00273703 38035 INSAT-2E (APR-1) 1 25666U 99016A 09181.56644888 -.00000166 00000-0 10000-3 0 4665 2 25666 0.1198 80.7269 0003998 10.5189 114.4115 1.00271708 37633 GALAXY 27 (G-27) 1 25922U 99052A 09183.55603789 .00000060 00000-0 10000-3 0 5119 2 25922 0.0137 49.5615 0002118 45.0433 257.2617 1.00272669 35779 GALAXY 11 (G-11) 1 26038U 99071A 09182.88785623 .00000156 00000-0 00000+0 0 7339 2 26038 0.0319 157.5297 0000570 56.5554 58.4328 1.00272379 34998 GALAXY 4R (G-4R) 1 26298U 00020A 09183.02033603 -.00000283 00000-0 10000-3 0 7061 2 26298 2.7237 76.3682 0001699 346.2707 13.3025 0.99844226 33820 INTELSAT 9 (IS-9) 1 26451U 00043A 09184.36428294 -.00000283 00000-0 10000-3 0 2514 2 26451 0.0322 55.9325 0001323 19.7044 279.0093 1.00271091 32747 INTELSAT 12 (IS-12) 1 26590U 00068A 09183.78869664 .00000138 00000-0 10000-3 0 3003 2 26590 0.0273 15.7447 0003057 86.0123 148.1174 1.00274104 31806 INTELSAT 1R (IS-1R) 1 26608U 00072A 09184.34292024 -.00000272 00000-0 10000-3 0 660 2 26608 0.0458 125.5520 0000616 220.1152 14.2066 1.00269819 31657 INTELSAT 10 (IS-10) 1 26766U 01019A 09183.97914747 -.00000023 00000-0 10000-3 0 4059 2 26766 0.0219 307.6980 0003046 138.3011 256.0943 1.00272288 29824 INTELSAT 901 (IS-901) 1 26824U 01024A 09183.35630184 -.00000140 00000-0 10000-3 0 4366 2 26824 0.0363 14.9575 0002725 79.4119 296.4000 1.00270850 29571 INTELSAT 902 (IS-902) 1 26900U 01039A 09184.80047522 .00000034 00000-0 10000-3 0 4222 2 26900 0.0301 9.0546 0003281 94.4182 168.6193 1.00273081 28757 INTELSAT 904 (IS-904) 1 27380U 02007A 09183.89820884 .00000050 00000-0 10000-3 0 4340 2 27380 0.0151 27.0783 0002941 67.3032 210.0184 1.00273106 26995 INTELSAT 903 (IS-903) 1 27403U 02016A 09184.11755512 -.00000237 00000-0 10000-3 0 2309 2 27403 0.0165 53.1274 0002740 49.4090 186.5492 1.00271371 26657 INTELSAT 905 (IS-905) 1 27438U 02027A 09184.18117510 -.00000183 00000-0 00000+0 0 781 2 27438 0.0449 243.5268 0002734 274.0817 164.4176 1.00270333 25979 GALAXY 3C (G-3C) 1 27445U 02030A 09184.37226868 -.00000149 00000-0 10000-3 0 452 2 27445 0.0245 184.7241 0000465 9.9310 125.8417 1.00271731 25859 INTELSAT 906 (IS-906) 1 27513U 02041A 09183.87547037 .00000016 00000-0 10000-3 0 2047 2 27513 0.0096 353.5343 0002831 106.7869 200.0232 1.00272990 25020 INTELSAT 907 (IS-907) 1 27683U 03007A 09180.96235340 -.00000205 00000-0 10000-3 0 7974 2 27683 0.0189 47.0028 0003214 51.8330 138.2549 1.00270944 23359 GALAXY 12 (G-12) 1 27715U 03013B 09184.38641497 .00000026 00000-0 10000-3 0 1379 2 27715 0.0180 0.7491 0002446 97.2439 199.7109 1.00271974 22904 GALAXY 23 (G-23) 1 27854U 03034A 09183.38394726 .00000014 00000-0 10000-3 0 23 2 27854 0.0201 36.1572 0002750 59.9012 201.6784 1.00271757 21657 GALAXY 13 (HORIZONS-1) 1 27954U 03044A 09182.26872718 .00000048 00000-0 10000-3 0 9108 2 27954 0.0163 42.4743 0001908 36.3141 170.3899 1.00272940 21127 INTELSAT 10-02 1 28358U 04022A 09181.96156429 -.00000012 00000-0 10000-3 0 7160 2 28358 0.0345 96.5084 0000820 335.5568 192.2464 1.00271736 18506 GALAXY 28 (G-28) 1 28702U 05022A 09182.44112016 -.00000185 00000-0 10000-3 0 6678 2 28702 0.0062 336.6851 0001792 65.3256 307.3846 1.00270370 14777 GALAXY 14 (G-14) 1 28790U 05030A 09183.40357263 .00000038 00000-0 10000-3 0 7549 2 28790 0.0156 5.8561 0002329 94.9679 200.0106 1.00273187 14200 GALAXY 15 (G-15) 1 28884U 05041A 09183.60438891 .00000080 00000-0 10000-3 0 6539 2 28884 0.0060 7.1314 0002397 114.8471 243.3524 1.00273043 13648 GALAXY 16 (G-16) 1 29236U 06023A 09184.12103440 -.00000125 00000-0 10000-3 0 5438 2 29236 0.0479 143.4531 0003186 319.2252 123.1412 1.00270829 11169 GALAXY 17 (G-17) 1 31307U 07016B 09183.36639514 -.00000173 00000-0 10000-3 0 3851 2 31307 0.0138 356.7637 0003779 135.5621 189.0797 1.00272019 7969 INTELSAT 11 (IS-11) 1 32253U 07044B 09184.11931420 -.00000267 00000-0 10000-3 0 2457 2 32253 0.0292 93.1754 0002396 8.7414 179.1888 1.00270554 6421 HORIZONS 2 1 32388U 07063B 09182.40429417 -.00000252 00000-0 10000-3 0 2369 2 32388 0.0062 282.6805 0002291 168.3444 260.0237 1.00269553 5757 GALAXY 18 (G-18) 1 32951U 08024A 09181.53631333 .00000023 00000-0 10000-3 0 1812 2 32951 0.0189 326.1756 0002670 123.0429 259.5699 1.00272470 4086